Theta_e
328 328 330 332 333 333 333 334 336 336 336 336 335 335 335 336 335 335 335 335 336 334 334 333 335 335 334 336 337 338 339 340 341 340 338 337 341 340 339 338 339 339 339 339 340 341 343 346 344 345 346 350 353 353 353 354 353 355 355 354 350 349 347
327 328 329 330 331 331 331 333 334 334 334 334 334 334 334 335 334 334 333 333 333 333 334 335 338 334 333 335 337 335 337 338 344 348 342 342 342 339 339 339 339 339 339 340 341 341 343 343 344 344 345 348 349 350 351 352 352 352 353 354 353 350 349
326 328 328 328 329 329 329 330 332 333 333 332 333 333 334 335 334 333 332 332 332 333 334 334 338 335 334 334 335 335 336 334 335 335 336 337 337 337 338 340 339 339 340 341 341 341 345 345 345 344 346 346 344 346 347 349 350 350 351 351 352 351 351
326 327 328 329 329 329 330 331 332 332 332 332 332 333 333 336 335 333 332 331 331 334 333 332 337 335 335 339 336 337 337 336 337 336 336 336 337 338 338 338 339 340 339 339 340 343 345 345 342 342 346 342 343 343 345 346 348 349 350 351 350 351 352
326 327 327 328 328 328 329 329 331 331 331 332 332 335 333 335 335 333 332 332 330 332 332 332 333 337 338 337 336 337 340 337 337 336 336 337 340 338 337 339 339 339 339 339 341 345 341 340 341 341 341 342 342 343 344 345 346 348 349 350 350 351 352
325 325 326 327 328 328 329 329 330 331 331 330 330 331 331 332 334 334 333 337 334 336 333 336 335 342 335 336 338 339 338 337 337 340 338 339 338 337 338 338 338 339 339 338 343 341 340 340 340 341 340 342 342 343 344 344 346 346 346 347 349 350 350
325 326 326 327 328 328 328 329 329 330 330 331 330 333 331 331 332 333 332 333 337 333 334 335 337 336 333 337 335 342 337 337 335 335 336 338 337 340 337 337 343 340 338 342 338 339 339 339 340 340 341 341 343 343 343 342 342 343 344 344 346 347 348
326 326 327 327 328 328 328 328 328 328 329 330 329 329 329 330 331 331 331 332 335 332 334 334 334 335 334 336 335 334 335 334 334 335 336 337 335 339 337 336 336 336 340 338 338 339 339 339 339 341 340 341 341 342 342 342 342 342 342 343 344 344 346
326 327 327 327 328 328 328 328 328 328 328 327 327 328 329 330 330 330 329 330 332 333 333 333 334 334 334 335 335 334 334 334 334 335 335 335 335 334 334 335 335 338 338 337 337 339 340 340 340 339 340 340 341 340 340 341 342 342 342 342 342 342 343
325 326 327 328 328 328 328 328 327 326 327 325 325 326 328 329 329 328 328 331 331 332 333 333 333 334 335 334 334 333 333 333 333 334 334 334 334 334 334 334 334 337 337 338 338 338 339 340 339 340 339 339 339 340 340 341 341 341 342 342 342 342 342
325 326 326 326 326 326 326 326 325 325 325 324 324 325 327 327 327 327 327 330 331 332 333 334 334 334 334 334 334 333 333 333 333 333 333 334 333 333 334 334 335 337 340 338 337 338 337 339 340 339 338 338 338 339 339 340 341 341 341 341 342 342 342
324 324 325 325 325 325 325 326 326 325 325 324 323 325 326 327 327 327 327 330 332 331 331 333 334 334 334 333 333 333 332 333 333 333 333 333 333 333 334 334 335 336 336 339 337 336 336 337 337 338 338 338 338 339 340 340 340 340 340 341 342 342 342
324 324 324 324 325 325 325 324 325 325 324 324 324 325 327 327 327 327 328 330 332 332 333 333 334 333 333 332 333 332 332 332 332 333 332 333 333 333 334 335 335 335 335 337 337 336 335 336 336 337 337 338 338 339 339 339 340 340 340 340 341 341 341
328 323 323 324 324 323 324 324 324 324 324 324 324 325 327 327 327 327 328 329 331 332 334 334 334 333 333 332 332 332 332 332 332 332 332 332 333 334 334 334 334 334 335 337 335 335 335 335 335 335 337 337 338 339 340 340 339 339 339 340 340 341 342
322 322 322 322 323 323 324 323 324 324 324 325 325 325 327 327 328 328 330 331 332 334 334 335 333 332 332 331 331 331 331 331 333 333 334 335 333 333 333 333 333 334 334 335 335 337 336 335 335 334 335 336 337 338 338 337 337 338 339 340 341 342 342
321 321 322 322 323 323 324 324 325 324 325 325 325 326 326 327 327 328 329 330 332 333 334 334 332 331 331 330 331 331 331 331 333 334 332 332 332 332 332 333 333 334 333 333 333 333 335 334 334 335 334 334 336 336 336 337 337 340 343 343 342 341 341
320 321 322 323 323 323 324 324 325 325 325 325 325 326 326 327 327 329 330 331 332 332 333 333 332 330 330 331 331 330 330 331 332 332 331 332 332 332 332 332 332 332 331 332 332 332 332 334 332 333 334 334 334 334 335 336 337 340 340 340 341 341 341
320 321 321 322 323 323 323 324 324 324 324 325 325 326 326 327 328 329 330 331 331 332 333 332 331 331 330 331 330 330 331 331 331 331 331 331 331 332 331 331 331 330 331 331 330 331 333 331 331 332 332 333 333 333 334 335 338 336 336 337 337 339 341
321 322 322 323 323 324 324 324 325 325 325 325 325 326 327 328 329 329 331 331 332 333 333 332 332 331 330 330 329 331 331 331 331 331 331 331 331 331 331 330 330 330 330 329 331 332 330 330 330 330 331 332 331 332 333 335 336 335 335 335 335 336 339
322 322 323 324 324 325 325 325 326 326 326 326 327 328 329 331 330 331 332 333 333 332 332 332 331 330 330 330 329 330 330 330 330 330 331 331 330 330 329 329 329 330 330 331 331 329 328 329 329 330 330 331 332 333 333 334 336 333 332 331 331 333 335
322 322 323 323 324 324 325 325 326 326 326 327 328 329 329 330 332 332 331 332 332 332 331 330 330 328 328 329 330 330 330 330 330 330 331 331 329 329 329 329 329 329 330 330 329 329 329 329 329 329 332 331 331 331 332 333 334 331 330 328 327 330 335
322 323 323 324 324 324 324 325 325 326 327 331 331 329 329 330 331 331 331 332 331 331 330 328 328 329 328 329 330 330 330 330 330 329 329 329 329 328 328 328 328 328 329 331 329 329 329 329 329 329 329 330 330 330 330 332 329 327 327 325 325 330 335
324 325 326 327 326 326 327 327 327 328 331 330 329 329 329 330 331 331 330 330 330 329 327 327 328 329 329 332 330 331 330 330 329 329 330 329 328 328 328 328 328 328 330 328 328 327 327 328 328 329 329 329 331 330 330 330 329 326 325 324 324 331 334
326 326 326 326 326 327 327 328 329 333 329 328 328 329 329 331 331 330 329 329 328 329 328 327 328 329 330 329 330 330 330 329 329 329 329 328 328 328 328 328 328 327 329 328 327 327 327 328 328 329 330 330 329 329 329 331 332 327 324 323 324 330 333
327 327 327 327 327 326 326 327 329 331 329 328 328 328 329 330 329 329 329 332 328 327 328 327 327 327 328 329 329 329 329 329 329 329 328 328 328 328 327 327 327 329 329 328 327 327 328 329 328 327 328 328 328 331 331 331 331 325 323 322 323 329 333
326 326 326 327 327 326 327 332 330 327 326 326 327 327 329 328 328 331 329 330 327 327 328 328 328 329 328 328 328 329 330 329 331 330 329 327 327 327 326 328 328 327 327 327 326 326 326 326 326 325 325 327 328 328 329 328 329 330 323 321 321 323 332
325 326 325 325 329 334 328 327 326 325 325 325 328 329 329 329 329 331 332 329 326 327 327 328 327 327 328 328 328 328 328 328 327 327 327 327 327 327 328 327 326 326 325 325 325 324 324 323 324 324 325 326 326 327 327 328 329 330 323 320 320 321 327
329 331 333 336 335 330 325 324 325 325 326 326 328 329 328 328 330 329 330 327 325 326 327 327 327 327 327 327 327 327 328 327 327 328 328 328 328 325 324 325 326 325 325 325 324 323 322 323 324 323 323 324 325 326 326 328 331 330 326 322 319 318 320
324 324 324 325 326 330 326 325 324 325 326 327 327 327 326 328 330 330 331 326 327 327 327 328 329 328 327 327 328 328 328 327 327 327 327 326 326 324 323 324 324 324 325 323 322 322 321 322 322 322 322 323 324 325 326 327 328 329 329 325 319 317 317
323 324 324 325 326 327 330 325 326 326 327 328 329 326 326 328 329 330 328 326 326 326 330 330 328 327 327 329 327 326 326 327 327 325 324 325 325 324 324 324 324 324 323 323 322 321 320 321 322 322 321 321 322 324 325 327 327 328 328 328 321 317 315
323 324 325 326 327 330 327 325 325 325 326 325 327 326 326 325 330 333 330 327 329 331 329 328 328 328 327 325 325 325 325 324 324 324 324 324 324 323 325 324 323 322 322 322 322 321 320 321 322 321 321 321 322 323 324 325 326 326 327 327 328 321 318
323 324 325 325 326 327 325 324 324 324 326 326 326 326 332 325 328 330 330 329 329 330 327 328 328 328 327 325 324 324 323 323 323 323 324 325 325 325 324 323 322 321 321 322 321 321 321 320 321 321 322 322 322 323 323 325 325 325 326 327 328 328 323
322 323 323 323 326 329 324 324 323 325 327 326 326 325 327 327 325 327 328 330 329 328 326 329 328 327 325 322 322 323 323 322 322 325 326 325 324 323 323 323 322 321 322 321 321 321 321 321 321 321 321 321 322 323 324 324 324 324 325 326 326 326 326
320 321 322 324 327 324 322 322 323 326 326 326 326 324 325 327 327 327 326 325 326 326 326 327 327 325 322 321 322 322 323 323 326 326 323 323 322 321 321 321 322 321 320 321 321 320 320 321 321 321 321 321 321 321 321 322 323 323 324 325 326 323 321
320 321 323 323 324 325 321 321 323 324 325 326 324 323 322 323 324 326 325 326 325 323 325 326 326 324 321 321 321 320 323 324 324 324 323 321 321 321 321 320 320 321 322 324 324 323 321 322 321 323 322 322 321 320 319 320 320 322 320 324 314 314 313
320 321 321 322 323 321 324 327 323 324 324 323 322 322 324 325 326 326 326 326 324 324 326 325 324 323 321 321 321 321 322 324 324 323 322 321 320 320 321 323 319 319 322 322 324 321 316 313 319 321 322 320 320 321 319 318 321 317 309 304 303 303 303
320 319 320 321 321 321 322 323 328 326 327 326 327 324 325 325 325 325 325 325 323 323 322 321 324 323 320 321 320 322 324 324 323 322 321 320 320 319 319 320 321 311 309 314 320 315 309 305 305 306 308 315 316 318 315 313 309 305 303 302 301 300 300
320 320 321 322 319 322 324 324 325 323 326 322 324 323 323 326 324 323 324 323 322 322 320 320 322 319 318 318 319 322 324 324 322 322 320 320 319 318 319 318 318 320 312 307 310 310 307 304 303 303 303 305 308 314 317 313 308 304 302 301 301 300 299
Wind_Speed
5 5 6 6 7 7 7 7 7 7 6 6 5 5 4 3 3 3 3 3 3 2 1 2 4 4 5 4 4 4 4 4 3 3 2 1 1 2 2 1 2 3 3 3 4 4 5 5 4 5 4 4 3 3 2 2 3 4 5 4 5 5 5
8 7 7 6 7 6 5 6 6 6 6 6 6 5 4 4 3 3 4 3 3 3 2 1 2 4 5 3 3 3 4 4 3 2 2 2 2 2 2 3 3 4 4 3 4 4 4 4 4 4 5 5 4 4 3 3 3 3 3 4 5 5 6
8 7 7 6 7 7 6 5 5 6 6 5 5 4 6 6 5 6 5 4 3 2 0 2 3 4 4 4 3 3 3 3 3 2 2 3 4 5 4 3 2 2 3 3 3 3 3 4 4 4 4 4 4 4 4 4 3 3 3 3 4 5 7
8 9 8 7 6 6 7 7 8 6 5 7 7 7 6 6 5 5 5 6 5 3 3 2 1 3 4 3 2 2 2 1 1 1 2 2 4 3 4 4 3 3 4 4 4 3 3 3 4 5 4 4 4 4 4 4 3 3 3 3 4 5 7
6 5 5 6 6 6 6 7 7 7 7 6 7 7 7 5 4 4 3 4 5 4 4 4 3 2 2 2 2 1 1 1 1 1 1 1 1 1 1 2 3 3 3 4 4 4 4 5 5 4 5 4 5 4 4 4 4 4 4 3 4 4 5
9 9 8 7 7 7 8 8 8 8 8 7 6 6 4 4 3 5 4 4 3 1 2 2 4 4 3 2 2 2 2 2 1 1 1 1 1 1 1 2 3 3 4 4 3 4 4 4 4 5 5 5 5 5 4 5 5 4 4 3 3 4 4
9 9 9 9 8 8 8 8 7 6 6 6 3 2 3 4 6 6 4 4 4 4 4 5 4 4 3 2 3 2 1 1 2 2 2 1 1 2 3 3 2 3 3 3 4 4 4 4 5 5 4 5 5 5 5 5 5 4 4 4 4 3 4
10 9 9 9 9 8 8 7 6 5 3 2 3 3 4 4 4 5 5 5 5 4 5 5 4 4 3 3 4 4 3 3 2 2 2 2 3 3 3 3 4 3 3 3 5 3 4 5 4 4 5 4 5 5 5 5 5 5 3 4 4 5 3
10 10 11 10 10 9 8 8 7 6 6 6 5 5 4 5 5 6 5 5 5 6 5 5 5 5 4 4 5 5 4 2 3 2 3 3 3 4 4 4 4 3 3 4 4 4 4 5 5 5 5 5 5 5 5 5 5 5 4 4 4 5 5
9 8 6 6 6 6 6 6 5 5 5 5 4 4 5 6 5 5 5 6 5 6 6 5 5 4 4 4 4 4 3 3 3 3 3 3 4 4 5 4 4 3 3 4 3 4 4 4 5 5 5 5 5 5 5 5 5 5 5 5 5 5 5
8 7 6 7 8 7 6 6 7 7 6 6 5 4 5 5 6 6 6 5 6 6 6 5 4 4 4 5 5 4 4 5 4 4 4 4 4 5 5 4 4 3 4 4 4 4 4 5 4 5 5 5 5 5 5 5 5 5 5 5 5 5 5
7 8 9 8 7 7 9 8 7 6 6 5 6 6 6 6 6 6 5 6 5 5 4 4 4 4 4 5 4 4 5 5 4 5 5 5 4 5 4 4 4 4 4 3 4 4 4 5 5 4 5 5 6 5 5 5 5 5 6 6 5 5 5
10 10 10 11 10 8 5 6 9 8 7 7 6 6 6 6 6 5 5 5 4 4 4 4 5 5 5 5 5 4 5 5 5 5 5 5 5 4 3 4 4 4 5 4 4 4 5 5 5 5 5 6 5 5 6 5 5 5 5 6 6 6 5
6 5 5 4 6 8 11 9 7 8 8 7 7 6 5 5 6 6 6 6 5 4 4 4 4 4 4 4 4 5 6 6 5 5 5 4 4 4 4 4 4 4 4 3 4 5 5 6 6 5 5 5 5 6 5 5 5 5 5 5 5 5 5
9 9 8 9 10 9 9 11 9 9 8 8 6 7 7 5 5 3 3 3 3 3 5 4 4 4 4 4 5 6 5 5 4 4 4 4 4 4 5 4 4 4 4 4 4 4 5 5 5 6 6 5 6 6 5 5 5 4 5 5 6 5 5
10 11 12 13 12 11 10 9 8 9 8 7 8 8 7 6 5 5 5 5 4 4 4 4 5 4 4 5 6 5 4 4 4 4 4 4 5 5 5 4 4 4 4 5 5 5 5 5 5 5 6 6 6 6 4 4 4 7 13 11 7 7 6
11 12 12 11 9 9 8 7 7 7 8 9 9 9 8 7 6 5 4 4 4 5 4 4 4 4 4 5 5 4 4 4 5 4 5 5 5 5 5 5 3 4 5 5 5 6 5 4 5 5 5 6 5 6 5 5 5 12 11 10 12 8 6
12 11 11 11 10 7 7 8 9 10 10 10 9 8 6 6 5 5 5 5 5 5 3 5 4 4 5 5 5 4 5 5 5 5 5 5 5 5 4 3 4 4 5 5 6 5 4 5 5 6 5 5 5 6 6 5 9 12 12 12 11 10 7
13 13 12 10 10 11 11 12 12 12 10 8 8 8 7 6 6 6 6 5 6 3 4 5 5 4 5 5 4 5 5 5 5 5 6 6 5 4 3 4 5 5 5 6 6 5 6 6 6 6 5 5 6 6 6 6 9 11 12 12 11 11 9
11 10 8 9 11 12 11 8 7 8 9 9 7 6 6 7 7 7 5 4 3 4 5 4 4 4 5 4 5 5 5 5 5 5 6 6 5 4 5 5 6 6 5 5 5 5 6 6 7 6 6 5 6 6 6 7 9 11 11 11 11 11 9
9 9 11 11 9 8 9 9 7 6 6 6 6 6 6 5 3 3 3 3 4 5 4 4 3 4 4 5 5 5 5 5 4 5 5 5 5 5 5 6 6 6 6 5 5 6 6 6 6 6 6 6 5 5 6 6 11 11 12 11 12 11 9
10 9 10 11 12 11 10 11 11 10 8 5 6 6 6 7 5 4 4 4 4 3 3 3 3 5 5 5 5 5 5 4 5 5 5 5 5 5 6 6 6 7 6 5 6 5 4 5 5 5 6 6 5 6 6 6 10 11 12 12 12 11 6
4 5 3 2 3 4 3 4 6 7 6 6 7 7 6 4 5 4 4 4 4 3 2 1 4 5 4 4 5 5 5 4 4 5 5 5 6 6 6 6 7 7 4 5 6 6 6 6 5 5 6 6 6 6 6 7 9 11 12 12 13 8 5
6 6 7 7 7 7 7 6 7 6 8 8 6 5 5 5 5 4 5 5 3 2 1 1 4 5 4 5 5 5 4 4 4 5 6 6 6 6 6 6 5 6 4 5 6 7 6 5 5 5 5 5 7 6 7 7 9 12 11 12 12 10 6
7 7 7 7 9 9 8 8 8 7 6 7 7 4 5 5 5 5 4 3 3 2 2 4 5 4 5 5 4 4 4 4 4 5 5 6 7 6 7 7 6 6 5 5 5 6 6 5 5 6 5 6 6 10 11 8 9 12 12 12 12 9 5
8 8 7 7 7 8 8 8 9 7 8 7 6 5 6 6 5 4 3 3 3 2 3 4 5 5 4 4 4 4 4 3 4 5 5 6 6 6 6 5 5 6 6 6 4 5 5 6 5 7 7 7 6 6 7 8 8 10 13 12 12 12 7
7 7 9 8 8 8 8 6 8 9 7 5 5 5 5 6 5 4 2 2 3 4 5 5 4 4 4 3 4 4 4 4 4 5 6 5 5 6 6 6 6 6 6 6 6 6 6 7 6 6 8 8 8 7 7 6 8 9 12 12 12 12 9
10 9 8 7 9 8 8 8 8 8 6 4 5 5 5 5 4 2 2 2 4 6 5 4 4 3 3 4 4 4 4 5 5 4 5 5 5 6 7 6 6 5 6 5 6 7 7 8 7 7 8 8 7 7 8 9 13 10 11 12 12 12 12
10 10 10 10 8 6 9 8 7 7 6 4 4 4 5 5 3 2 2 3 4 4 3 3 3 3 3 4 4 5 5 5 6 6 5 5 5 6 7 6 6 6 6 6 6 7 8 8 7 8 8 7 7 6 7 6 7 12 11 12 12 12 12
9 10 9 8 8 8 9 8 7 6 5 3 3 3 4 4 3 3 3 2 4 3 2 3 4 3 4 4 4 5 6 5 6 6 5 5 5 6 6 7 6 6 6 6 6 6 8 8 8 8 8 8 9 8 7 6 6 8 12 11 13 13 13
9 10 9 9 8 7 8 9 8 6 4 2 2 3 2 3 4 2 0 2 2 2 3 4 3 3 4 5 5 5 5 5 5 5 5 5 4 5 5 7 7 8 7 6 6 7 8 7 7 9 10 10 10 8 9 9 7 6 8 13 13 13 13
8 8 8 8 7 6 7 7 6 6 4 1 2 1 1 2 2 1 1 2 3 3 2 1 2 3 3 4 5 5 5 6 6 6 5 5 4 5 5 6 6 7 7 7 7 7 7 9 10 10 10 9 8 8 9 9 9 8 8 8 10 10 10
7 8 9 8 6 7 6 6 5 4 3 2 0 1 1 1 3 2 3 3 2 1 1 2 2 3 3 4 5 5 4 5 5 5 5 5 5 5 5 5 5 6 7 6 7 7 8 10 10 11 10 10 10 9 8 7 8 7 8 7 7 6 6
7 5 3 4 4 5 6 5 6 3 2 0 1 1 1 1 2 3 3 2 1 2 2 2 2 3 4 5 4 5 5 5 7 7 5 6 6 6 6 5 4 6 7 7 7 8 9 9 10 11 10 9 10 9 9 9 8 7 6 7 7 8 7
5 5 6 6 4 4 5 4 3 2 1 2 1 1 1 2 3 3 1 1 2 2 3 2 3 3 4 4 5 6 5 5 5 5 6 6 6 6 6 6 7 7 7 8 6 6 7 8 10 10 9 8 10 10 11 10 10 8 8 11 11 10 8
5 5 4 3 3 4 3 3 3 4 3 3 1 1 0 1 2 1 1 1 1 2 2 2 3 4 5 4 5 5 5 5 5 6 6 6 6 7 9 8 8 8 8 9 12 14 13 9 8 8 7 8 8 7 9 10 10 14 16 15 14 13 12
6 4 4 3 4 2 4 3 2 2 2 1 0 1 1 1 1 1 1 1 1 2 2 2 3 3 4 5 5 5 5 5 6 5 6 6 6 7 8 10 9 8 13 14 15 15 16 16 16 15 13 8 7 9 13 14 16 17 14 13 13 13 13
4 4 4 4 4 5 4 4 3 3 3 2 2 2 2 3 3 2 0 0 1 1 3 3 2 3 4 4 5 5 5 5 5 6 5 6 6 7 8 9 11 11 7 13 15 15 15 15 16 16 14 14 12 9 7 12 14 15 15 14 14 14 14
Wind_Direction
153 174 192 183 176 172 169 166 155 158 164 164 165 171 169 172 158 148 129 121 114 111 50 68 130 120 105 91 85 111 129 136 139 125 115 199 218 250 307 286 266 282 295 301 311 310 300 313 316 318 327 331 325 316 292 274 275 278 270 228 219 242 219
175 181 185 182 170 166 169 159 155 157 165 167 169 175 169 171 160 165 161 155 166 171 180 91 77 93 120 116 96 78 89 65 59 54 45 350 349 341 283 319 313 316 316 303 297 299 302 311 330 333 333 332 338 332 324 314 292 283 273 257 237 237 234
176 181 178 180 171 165 164 150 168 171 169 170 169 166 182 188 183 175 157 161 179 223 130 91 163 150 141 132 107 106 90 92 86 73 24 342 330 326 326 328 307 287 293 296 294 307 311 321 331 334 325 330 327 334 331 318 305 284 266 250 249 252 252
180 185 184 178 172 166 164 167 174 179 180 176 178 185 190 202 186 177 167 163 177 168 216 179 178 134 139 148 145 90 48 36 212 302 327 326 317 319 336 339 339 335 335 330 321 308 311 326 319 322 329 324 315 315 321 311 302 300 293 273 261 247 252
178 160 150 168 171 166 171 178 184 177 187 193 189 187 193 193 162 163 174 168 162 184 200 184 180 173 154 139 125 155 222 229 24 14 272 274 272 296 286 302 305 288 284 301 313 320 326 331 320 319 316 312 304 311 308 307 302 302 299 291 285 267 258
174 175 178 177 179 183 184 185 189 183 186 191 193 188 188 163 156 183 184 171 149 103 168 136 150 163 174 159 113 211 240 237 214 236 247 275 253 273 248 266 275 287 302 290 301 299 302 299 299 304 309 307 306 302 303 302 303 303 299 292 272 276 271
179 181 178 182 182 185 186 187 191 188 191 197 172 149 140 159 179 186 169 173 166 159 164 165 164 168 191 149 204 206 180 276 326 316 292 308 241 245 260 266 270 265 259 295 294 299 305 299 292 290 285 291 293 294 295 302 299 298 293 290 280 264 260
177 182 187 182 184 182 184 186 186 182 186 175 142 154 168 194 163 164 182 181 165 153 163 165 184 190 202 199 196 189 212 244 241 270 285 288 295 275 280 281 271 269 285 274 283 286 285 287 285 284 288 279 278 279 282 284 285 285 291 284 285 284 267
186 184 182 183 181 183 183 183 180 177 179 182 181 186 184 178 181 178 177 164 168 160 186 187 190 198 187 188 191 214 225 237 256 231 240 259 273 272 271 272 277 257 260 268 280 278 263 271 279 284 282 280 273 272 272 271 275 280 278 277 267 272 278
181 182 187 179 179 178 180 174 161 155 171 178 180 185 193 191 183 176 171 170 161 178 191 199 207 195 186 196 217 225 241 248 244 246 241 246 251 256 262 264 270 265 253 265 262 271 281 278 277 280 278 275 278 270 270 273 270 272 265 264 268 268 268
182 179 167 172 177 176 165 163 169 181 181 179 182 193 191 185 181 178 181 169 178 195 197 195 192 186 202 199 215 225 237 259 240 245 247 243 245 250 261 264 267 260 259 265 273 274 283 285 285 278 273 272 272 275 270 267 266 271 273 267 258 257 260
172 170 183 178 172 174 182 180 178 179 179 177 182 188 192 190 186 187 182 192 188 190 190 207 194 201 200 206 208 236 249 258 259 246 243 243 243 246 253 265 261 262 267 246 264 277 271 273 277 279 280 275 273 268 269 266 263 259 265 269 268 262 258
179 182 182 183 184 180 156 177 188 185 179 183 185 192 193 186 192 195 192 201 203 205 192 200 195 203 202 203 213 239 256 255 251 249 250 246 247 253 261 259 256 254 261 259 265 275 282 280 278 280 274 278 276 273 270 271 270 266 262 262 261 259 264
166 167 176 167 170 176 188 187 183 184 184 184 192 196 199 201 194 193 190 198 205 198 203 213 196 200 205 204 229 241 254 252 251 255 253 253 249 255 260 256 254 252 257 267 271 271 271 277 280 283 285 278 276 274 276 275 275 271 263 258 255 255 252
179 184 181 187 194 190 184 188 188 184 186 190 184 193 201 199 209 212 217 220 208 179 210 208 189 198 204 213 231 246 249 263 270 267 269 271 272 267 261 254 255 266 273 271 272 266 268 273 275 282 284 282 274 275 272 271 269 263 259 254 260 242 247
186 187 191 196 196 195 196 190 182 184 184 187 189 196 195 196 200 200 200 208 199 203 227 176 204 189 200 220 240 254 261 264 271 269 264 265 262 257 254 251 254 256 268 267 265 266 269 269 268 268 276 281 284 281 279 271 263 275 283 292 289 286 284
191 196 200 200 196 198 192 184 180 183 189 193 195 198 193 194 196 191 202 206 195 215 219 191 192 201 208 238 250 262 277 277 272 268 273 268 264 258 251 252 251 265 265 268 267 267 270 269 267 269 272 277 280 283 278 276 274 285 287 285 289 289 278
196 201 198 197 196 185 180 185 186 193 195 196 198 192 185 188 185 175 203 201 205 220 184 193 195 211 230 244 265 277 280 281 289 294 291 287 273 258 253 257 266 269 270 274 280 275 266 269 270 273 277 278 280 278 279 275 282 284 285 287 285 285 282
200 200 198 188 186 191 191 191 194 194 193 194 191 186 193 177 163 191 200 192 219 178 198 205 209 224 245 257 262 275 276 283 296 300 299 291 279 275 274 278 281 279 283 285 284 290 292 291 289 288 284 279 280 279 277 275 280 281 284 288 289 288 289
203 199 192 193 195 193 193 189 190 193 194 192 185 179 171 174 178 195 189 189 164 189 217 206 233 232 260 284 280 276 283 285 294 297 292 290 290 294 296 293 284 281 272 278 291 295 294 298 296 296 294 288 285 284 283 274 277 279 285 289 291 291 289
194 187 191 191 191 189 185 186 179 172 173 167 159 152 152 180 196 151 138 162 192 216 212 226 268 293 285 283 278 279 277 283 292 292 290 291 289 294 289 283 285 288 285 285 285 290 292 291 294 288 288 289 285 280 282 278 284 286 287 288 290 290 292
195 183 190 193 189 185 176 177 179 176 167 146 137 154 167 176 162 149 198 178 198 203 214 236 289 281 280 273 274 279 280 286 298 296 297 298 297 293 286 285 279 286 292 296 291 279 271 272 264 275 285 286 285 285 284 283 287 287 288 288 289 290 289
180 195 183 146 158 157 140 132 137 144 133 141 150 148 176 158 150 167 164 174 211 180 225 218 268 267 273 283 281 285 285 288 298 301 301 303 300 295 293 293 296 292 283 289 292 292 284 281 280 282 283 290 292 289 287 290 292 290 288 290 293 295 283
112 119 126 124 110 116 125 126 121 132 139 145 146 155 146 140 150 157 174 202 189 178 226 105 252 259 273 278 282 282 296 304 293 300 306 308 303 300 298 294 286 280 283 285 292 294 292 290 288 285 282 283 287 283 286 288 289 287 288 287 289 289 284
117 121 128 136 140 137 138 140 138 134 129 130 137 131 117 139 150 157 189 182 146 128 184 244 259 270 267 269 280 292 287 287 300 303 298 300 302 301 300 297 293 290 291 279 271 277 285 292 287 288 282 272 271 283 287 287 289 289 285 282 284 289 284
120 117 114 118 122 134 132 129 114 112 122 134 148 138 140 151 156 164 158 161 121 179 246 258 251 250 257 269 282 292 305 302 301 290 288 292 296 299 294 289 293 296 298 295 289 289 292 291 288 287 285 286 278 274 275 279 280 283 284 282 282 285 282
99 115 122 121 122 119 113 116 128 132 135 142 135 141 153 153 143 145 155 140 159 234 249 249 255 264 265 289 308 306 293 284 262 287 299 292 286 292 302 306 302 301 301 302 303 300 296 292 289 285 288 290 287 281 276 268 276 277 279 280 281 283 284
96 86 81 92 104 105 103 99 97 95 89 105 142 146 142 128 125 153 121 113 218 244 247 259 264 267 299 313 297 288 294 305 314 305 301 305 312 313 307 302 298 287 290 289 291 293 296 296 294 295 291 290 282 277 278 280 284 288 286 286 286 285 284
101 104 104 98 87 90 106 102 102 113 129 131 120 111 112 113 122 137 161 201 241 248 249 254 290 331 336 319 316 321 321 319 317 315 315 308 306 301 298 301 303 299 295 291 297 299 301 300 298 297 296 291 286 279 280 278 282 283 284 285 286 285 283
94 92 86 82 101 109 100 101 107 109 102 87 76 90 127 128 142 165 176 237 251 274 298 332 358 0 343 333 327 322 317 315 313 305 300 296 301 300 297 301 299 298 301 305 302 303 302 300 301 300 298 298 297 297 293 287 278 278 279 284 286 281 279
105 107 108 109 108 106 108 122 125 120 110 90 90 104 129 134 137 138 155 262 289 308 332 340 359 358 337 326 316 313 305 307 301 300 301 297 295 297 299 301 308 310 310 311 304 301 301 297 301 301 301 299 298 297 296 294 285 274 278 281 286 283 278
95 98 103 105 105 108 113 109 110 116 118 70 32 19 85 131 126 147 234 312 335 338 1 11 11 349 325 313 311 305 307 308 308 305 294 295 292 282 286 296 306 310 309 308 303 300 300 302 303 303 302 298 293 288 294 292 294 291 291 291 294 293 288
120 127 131 130 138 119 108 109 108 114 112 135 301 348 14 138 203 245 294 293 312 295 156 106 1 332 324 319 311 308 312 312 295 298 304 303 299 293 295 291 284 295 300 297 296 298 298 300 302 304 302 302 300 298 294 291 293 296 298 296 296 298 306
128 100 75 106 114 112 116 125 137 147 127 167 292 347 340 357 335 281 297 299 227 141 92 44 352 345 322 314 309 310 312 303 309 315 303 304 307 305 303 293 280 293 292 292 292 295 298 297 299 301 303 302 302 304 302 301 298 298 301 305 310 315 311
134 130 132 118 124 130 136 141 131 148 156 251 291 336 355 321 300 319 318 210 154 92 43 12 350 338 326 324 329 319 312 309 297 291 300 302 305 291 280 276 299 296 288 279 269 260 272 285 287 291 292 294 299 304 307 302 301 304 315 310 309 303 301
123 121 101 78 79 91 127 143 148 167 192 248 278 329 323 298 306 313 268 156 112 69 47 359 341 349 340 326 321 314 313 311 305 302 301 302 297 306 306 289 276 267 280 288 286 280 275 261 262 271 288 292 286 284 292 299 299 302 304 303 301 296 289
133 133 129 113 106 116 147 158 137 133 219 252 170 159 252 262 250 166 83 118 197 102 96 71 17 341 332 326 326 317 316 312 307 305 303 297 300 309 310 310 305 254 244 257 265 271 275 280 275 273 267 255 276 284 280 283 288 292 296 299 294 287 285
143 147 148 170 165 159 139 138 162 188 218 224 151 220 212 187 206 225 249 209 120 119 106 93 68 340 319 318 305 312 312 308 308 313 312 311 307 309 310 311 310 311 246 231 251 257 264 267 273 275 278 278 272 276 290 292 290 296 300 297 295 290 290